Location: Newark
(48.8656°N, 2.3211°E)
Time: 07:18:15
(UTC+00:00)

OTV 5 (USA 277) - Visible Passes

Search period start: 19 February 2019 00:00
Search period end: 01 March 2019 00:00
Orbit: 342 x 346 km, 54.5° (Epoch: 17 February)

Date Brightness Start Highest point End Pass type
(mag) Time Alt. Az. Time Alt. Az. Time Alt. Az.
23 Feb ? 18:38:19 10° SSE 18:38:25 10° SSE 18:38:25 10° SSE visible
24 Feb ? 19:00:05 10° SSW 19:01:57 25° SSE 19:01:57 25° SSE visible
25 Feb ? 19:23:17 10° SW 19:25:20 42° SW 19:25:20 42° SW visible
26 Feb ? 18:12:33 10° SSW 18:15:04 27° SE 18:17:09 13° E visible
26 Feb ? 19:47:03 10° W 19:48:36 27° W 19:48:36 27° W visible
27 Feb ? 18:35:43 10° SW 18:38:35 74° SSE 18:40:19 21° ENE visible
27 Feb ? 20:11:05 10° WNW 20:11:46 15° WNW 20:11:46 15° WNW visible
28 Feb ? 18:59:28 10° W 19:02:17 49° NNW 19:03:23 30° NE visible
